CW3081 Weather Reports


time (UTC)temp
F
wind
direction
speed
knots
gust
knots
rain 1hr
in
rain 24hr
in
rain mn
in
humidity
%
barometer
mb
20260904061551 76 0 0.0 0.0 0.00 0.00 0.00 95 1015.4
20260904060106 76 0 0.0 0.0 0.00 0.00 0.00 95 1015.5
20260904054557 76 0 0.0 0.0 0.00 0.00 0.00 94 1015.6
20260904053054 76 0 0.0 0.0 0.00 0.00 0.00 94 1015.5
20260904051609 77 0 0.0 0.0 0.00 0.00 0.00 94 1015.5
20260904050104 77 0 0.0 0.0 0.00 0.00 0.00 94 1015.6
20260904044556 77 0 0.0 0.0 0.00 0.00 0.00 94 1015.7
20260904043052 77 0 0.0 0.0 0.00 0.00 0.00 93 1015.9
20260904041602 78 0 0.0 0.0 0.00 0.00 0.00 94 1015.8
20260904040106 78 0 0.0 0.0 0.00 0.00 0.00 93 1015.8
20260904034556 78 0 0.0 0.0 0.00 0.00 0.00 93 1015.8
20260904033052 79 0 0.0 0.0 0.00 0.00 0.00 93 1016.1
20260904031557 79 0 0.0 0.0 0.00 0.00 0.00 92 1016.0
20260904030100 79 0 0.0 0.0 0.00 0.00 0.00 92 1016.0
20260904024552 79 0 0.0 0.0 0.00 0.00 0.00 91 1016.0
20260904023050 79 0 0.0 0.0 0.00 0.00 0.00 90 1016.0
20260904021549 80 0 0.0 0.0 0.00 0.00 0.00 90 1015.8
20260904020100 80 0 0.0 0.9 0.00 0.00 0.00 90 1015.6
20260904014607 81 0 0.0 0.0 0.00 0.00 0.00 89 1015.6
20260904013050 81 0 0.0 0.0 0.00 0.00 0.00 88 1015.6
20260904011551 82 0 0.0 0.0 0.00 0.00 0.00 87 1015.2
20260904010115 82 0 0.0 0.0 0.00 0.00 0.00 86 1015.1
20260904004556 83 0 0.0 0.0 0.00 0.00 0.00 85 1015.1
20260904003106 84 0 0.0 0.0 0.00 0.00 0.00 84 1014.9
20260904001603 85 0 0.0 0.0 0.00 0.00 0.00 82 1014.9
20260904000100 86 0 0.0 0.0 0.00 0.00 0.00 80 1014.9
20260903234558 87 0 0.0 0.0 0.00 0.00 0.00 79 1014.9
20260903233103 88 0 0.0 0.0 0.00 0.00 0.00 78 1014.8
20260903231603 89 0 0.0 0.0 0.00 0.00 0.00 74 1014.7
20260903230100 90 0 0.0 0.0 0.00 0.00 0.00 70 1014.4
20260903224555 91 0 0.0 0.0 0.00 0.00 0.00 66 1014.3
20260903223052 91 0 0.0 0.0 0.00 0.00 0.00 67 1014.4
20260903221600 92 0 0.0 0.0 0.00 0.00 0.00 66 1014.4
20260903220057 92 0 0.0 0.0 0.00 0.00 0.00 64 1014.4
20260903214558 92 0 0.0 0.9 0.00 0.00 0.00 61 1014.5
20260903213056 92 0 0.0 0.0 0.00 0.00 0.00 62 1014.6
20260903211550 92 0 0.0 0.0 0.00 0.00 0.00 62 1014.8
20260903210117 92 0 0.0 0.0 0.00 0.00 0.00 60 1015.1
20260903204617 91 0 0.0 0.0 0.00 0.00 0.00 67 1015.2
20260903203053 90 0 0.0 0.0 0.00 0.00 0.00 68 1015.3
20260903201559 91 0 0.0 0.0 0.00 0.00 0.00 72 1015.6
20260903200057 92 0 0.0 0.0 0.00 0.00 0.00 66 1015.6
20260903194552 91 0 0.0 0.0 0.00 0.00 0.00 62 1015.8
20260903193053 92 0 0.0 0.0 0.00 0.00 0.00 63 1016.0
20260903191554 92 0 0.0 0.0 0.00 0.00 0.00 65 1016.1
20260903190050 93 0 0.0 0.9 0.00 0.00 0.00 65 1016.4
20260903184600 94 0 0.0 0.0 0.00 0.00 0.00 56 1016.3
20260903183059 95 0 0.0 0.9 0.00 0.00 0.00 57 1016.4
20260903181554 95 18 0.9 1.7 0.00 0.00 0.00 58 1016.5
20260903180052 94 31 0.0 1.7 0.00 0.00 0.00 55 1016.7
20260903174601 94 0 0.0 0.9 0.00 0.00 0.00 57 1016.9
20260903173057 93 11 0.9 1.7 0.00 0.00 0.00 56 1017.2
20260903171557 93 0 0.0 1.7 0.00 0.00 0.00 59 1017.4
20260903170050 92 138 0.0 0.9 0.00 0.00 0.00 61 1017.5
20260903164551 92 77 0.0 0.9 0.00 0.00 0.00 57 1017.6
20260903163101 90 0 0.0 0.9 0.00 0.00 0.00 63 1017.7
20260903161553 90 0 0.0 0.9 0.00 0.00 0.00 65 1017.8
20260903160109 89 0 0.0 0.9 0.00 0.00 0.00 66 1017.9
20260903154604 88 0 0.0 0.9 0.00 0.00 0.00 68 1017.9
20260903153058 87 0 0.0 0.0 0.00 0.00 0.00 72 1018.0
20260903151554 86 0 0.0 0.0 0.00 0.00 0.00 72 1017.9
20260903150104 85 0 0.0 0.0 0.00 0.00 0.00 75 1017.9
20260903144606 84 0 0.0 0.0 0.00 0.00 0.00 78 1017.9
20260903143048 82 0 0.0 0.0 0.00 0.00 0.00 81 1017.9
20260903141557 81 0 0.0 0.0 0.00 0.00 0.00 86 1017.9
20260903140113 0 0.0 0.0 0.00 0.00 0.00 1018.0
20260903134551 0 0.0 0.0 0.00 0.00 0.00 1018.0
20260903133107 0 0.0 0.0 0.00 0.00 0.00 1018.1
20260903131557 0 0.0 0.0 0.00 0.00 0.00 1018.1
20260903130053 0 0.0 0.0 0.00 0.00 0.00 1018.1
20260903124558 0 0.0 0.0 0.00 0.00 0.00 1018.0
20260903123051 0 0.0 0.0 0.00 0.00 0.00 1018.0
20260903121554 0 0.0 0.0 0.00 0.00 0.00 1018.0
20260903120101 0 0.0 0.0 0.00 0.00 0.00 1017.9
20260903114550 0 0.0 0.0 0.00 0.00 0.00 1017.7
20260903113056 0 0.0 0.0 0.00 0.00 0.00 1017.6
20260903111556 0 0.0 0.0 0.00 0.00 0.00 1017.5
20260903110052 0 0.0 0.0 0.00 0.00 0.00 1017.4
20260903104550 0 0.0 0.0 0.00 0.00 0.00 1017.3
20260903103059 0 0.0 0.0 0.00 0.00 0.00 1017.1
20260903101555 0 0.0 0.0 0.00 0.00 0.00 1017.0
20260903094607 0 0.0 0.0 0.00 0.00 0.00 1017.0
20260903093147 73 0 0.0 0.0 0.00 0.00 0.00 95 1016.8
20260903091603 73 0 0.0 0.0 0.00 0.00 0.00 95 1016.9
20260903090104 73 0 0.0 0.0 0.00 0.00 0.00 95 1017.0
20260903084558 73 0 0.0 0.0 0.00 0.00 0.00 95 1016.9
20260903083101 73 0 0.0 0.0 0.00 0.00 0.00 95 1016.9
20260903081554 73 0 0.0 0.0 0.00 0.00 0.00 95 1016.9
20260903080121 73 0 0.0 0.0 0.00 0.00 0.00 95 1016.8
20260903074602 74 0 0.0 0.0 0.00 0.00 0.00 95 1016.8
20260903073110 74 0 0.0 0.0 0.00 0.00 0.00 95 1016.7
20260903071606 74 0 0.0 0.0 0.00 0.00 0.00 95 1016.7
20260903070052 74 0 0.0 0.0 0.00 0.00 0.00 95 1016.7
20260903064600 74 0 0.0 0.0 0.00 0.00 0.00 95 1016.7
20260903063057 74 0 0.0 0.0 0.00 0.00 0.00 95 1016.8